Weather History for Eau Claire, WI

Change the Weather History Date:

Wednesday, September 28, 2011

  Actual Average Record
Temperature  
Mean Temperature 60 °F 55 °F  
Max Temperature 65 °F 66 °F 86 °F (1898)
Min Temperature 55 °F 43 °F 25 °F (1942)
Degree Days  
Heating Degree Days 5 11  
Month to date heating degree days 216 170  
Since 1 July heating degree days 220 209  
Cooling Degree Days 0 0  
Month to date cooling degree days 50 48  
Year to date cooling degree days 637 575  
Growing Degree Days 10 (Base 50)    
Moisture  
Dew Point 57 °F    
Average Humidity 92    
Maximum Humidity 100    
Minimum Humidity 84    
Precipitation  
Precipitation 0.05 in 0.12 in 1.39 in (1911)
Month to date precipitation 1.49 3.47  
Year to date precipitation 28.96 25.59  
Snow  
Snow 0.00 in 0.00 in T in (1899)
Month to date snowfall 0.0 0.0  
Since 1 July snowfall 0.0 0.0  
Since 1 September snowfall 0.0 0.0  
Snow Depth 0.00 in    
Sea Level Pressure  
Sea Level Pressure 29.82 in    
Wind  
Wind Speed 3 mph (South)    
Max Wind Speed 12 mph    
Max Gust Speed 13 mph    
Visibility 7 miles    
Events Rain    
T = Trace of Precipitation, MM = Missing Value Source: NWS Daily Summary

Daily Weather History Graph

Daily Weather History Graph

Search for Another Location

Airport:

Trip Planner

Search our weather history database for the weather conditions in past years. The results will help you decide how hot, cold, wet, or windy it might be!

Date:

Astronomy

Sep. 28, 2011 Rise Set
Actual Time 6:59 AM CDT 6:52 PM CDT
Civil Twilight 6:30 AM CDT 7:21 PM CDT
Nautical Twilight 5:56 AM CDT 7:55 PM CDT
Astronomical Twilight 5:21 AM CDT 8:30 PM CDT
Moon 8:37 AM CDT (9/28) 7:13 PM CDT (9/28)
Length of Visible Light 12h 50m
Length of Day
11h 52m
New Moon, 2% of the Moon is Illuminated
Sep 28
New Moon
Oct 3
First Quarter
Oct 11
Full
Oct 19
Last Quarter
Oct 26
New

Hourly Weather History & Observations

Time (CDT) Temp. Dew Point Humidity Pressure Visibility Wind Dir Wind Speed Gust Speed Precip Events Conditions
12:48 AM 57.2 °F 57.2 °F 100% 29.85 in 6.0 mi Calm Calm - N/A   Overcast
12:56 AM 57.9 °F 57.0 °F 97% 29.85 in 7.0 mi WNW 3.5 mph - N/A   Overcast
1:56 AM 57.9 °F 57.0 °F 97% 29.85 in 9.0 mi Calm Calm - N/A   Overcast
2:40 AM 57.2 °F 57.2 °F 100% 29.85 in 8.0 mi Calm Calm - N/A   Overcast
2:56 AM 57.0 °F 57.0 °F 100% 29.84 in 9.0 mi SSE 3.5 mph - N/A   Overcast
3:56 AM 57.0 °F 55.9 °F 96% 29.84 in 7.0 mi Calm Calm - N/A   Overcast
4:42 AM 57.2 °F 57.2 °F 100% 29.83 in 6.0 mi SSW 4.6 mph - N/A   Overcast
4:56 AM 57.2 °F 55.4 °F 94% 29.83 in 7.0 mi SSE 3.5 mph - N/A   Overcast
5:09 AM 57.2 °F 55.4 °F 94% 29.83 in 6.0 mi Calm Calm - N/A   Overcast
5:39 AM 57.2 °F 55.4 °F 94% 29.83 in 5.0 mi Calm Calm - 0.00 in Rain Light Rain
5:56 AM 57.2 °F 55.4 °F 94% 29.83 in 5.0 mi Calm Calm - N/A Rain Light Rain
6:14 AM 57.2 °F 57.2 °F 100% 29.84 in 2.5 mi West 3.5 mph - 0.03 in Rain Rain
6:23 AM 57.2 °F 55.4 °F 94% 29.84 in 4.0 mi West 4.6 mph - N/A Rain Light Rain
6:38 AM 57.2 °F 55.4 °F 94% 29.84 in 7.0 mi Calm Calm - 0.04 in   Overcast
6:52 AM 57.2 °F 55.4 °F 94% 29.85 in 7.0 mi Calm Calm - 0.04 in Rain Light Rain
7:07 AM 57.2 °F 57.2 °F 100% 29.84 in 7.0 mi Calm Calm - 0.00 in Rain Light Rain
7:16 AM 57.2 °F 57.2 °F 100% 29.84 in 2.0 mi Calm Calm - 0.00 in Rain Light Rain
7:32 AM 57.2 °F 57.2 °F 100% 29.84 in 1.5 mi South 3.5 mph - 0.00 in   Overcast
7:56 AM 57.0 °F 57.0 °F 100% 29.85 in 1.5 mi South 3.5 mph - 0.00 in Rain Light Rain
8:56 AM 57.0 °F 57.0 °F 100% 29.85 in 1.0 mi SSE 6.9 mph - 0.01 in   Overcast
9:56 AM 57.0 °F 57.0 °F 100% 29.85 in 1.0 mi SSW 4.6 mph - N/A   Overcast
10:56 AM 57.9 °F 57.0 °F 97% 29.85 in 1.5 mi Calm Calm - N/A   Overcast
11:34 AM 57.2 °F 57.2 °F 100% 29.85 in 8.0 mi South 3.5 mph - N/A   Overcast
11:56 AM 59.0 °F 57.9 °F 96% 29.85 in 9.0 mi Calm Calm - N/A   Overcast
12:23 PM 60.8 °F 57.2 °F 88% 29.84 in 10.0 mi Calm Calm - N/A   Overcast
12:56 PM 61.0 °F 57.9 °F 90% 29.83 in 10.0 mi SSE 3.5 mph - N/A   Overcast
1:24 PM 62.6 °F 59.0 °F 88% 29.83 in 10.0 mi South 3.5 mph - N/A   Overcast
1:34 PM 62.6 °F 59.0 °F 88% 29.83 in 10.0 mi Variable 3.5 mph - N/A   Overcast
1:56 PM 62.1 °F 57.9 °F 86% 29.82 in 10.0 mi South 3.5 mph - N/A   Overcast
2:13 PM 62.6 °F 59.0 °F 88% 29.82 in 10.0 mi SSE 3.5 mph - N/A   Overcast
2:56 PM 64.0 °F 59.0 °F 84% 29.81 in 10.0 mi SE 4.6 mph - N/A   Overcast
3:25 PM 64.4 °F 59.0 °F 83% 29.81 in 10.0 mi ESE 6.9 mph - N/A   Overcast
3:56 PM 64.9 °F 59.0 °F 81% 29.81 in 10.0 mi SSE 4.6 mph - N/A   Mostly Cloudy
4:56 PM 64.0 °F 59.0 °F 84% 29.80 in 10.0 mi ESE 6.9 mph - N/A   Scattered Clouds
5:07 PM 64.4 °F 59.0 °F 83% 29.80 in 10.0 mi East 6.9 mph - N/A   Mostly Cloudy
5:18 PM 62.6 °F 59.0 °F 88% 29.80 in 10.0 mi ESE 5.8 mph - N/A   Scattered Clouds
5:56 PM 63.0 °F 59.0 °F 87% 29.80 in 10.0 mi SSE 5.8 mph - N/A   Clear
6:56 PM 60.1 °F 57.9 °F 93% 29.80 in 10.0 mi SE 5.8 mph - N/A   Clear
7:56 PM 59.0 °F 57.0 °F 93% 29.80 in 9.0 mi SSE 4.6 mph - N/A   Clear
8:56 PM 57.9 °F 57.0 °F 97% 29.81 in 10.0 mi South 3.5 mph - N/A   Clear
9:56 PM 57.0 °F 55.9 °F 96% 29.79 in 10.0 mi South 3.5 mph - N/A   Clear
10:56 PM 55.0 °F 55.0 °F 100% 29.78 in 7.0 mi SSW 4.6 mph - N/A   Clear
11:17 PM 55.4 °F 55.4 °F 100% 29.77 in 6.0 mi SSW 4.6 mph - N/A   Scattered Clouds
11:26 PM 55.4 °F 55.4 °F 100% 29.77 in 7.0 mi SSW 4.6 mph - N/A   Mostly Cloudy
11:56 PM 55.9 °F 55.9 °F 100% 29.77 in 7.0 mi South 3.5 mph - N/A   Overcast